Wind_Speed
34 35 36 38 40 40 40 40 42 43 44 45 46 46 47 46 45 42 40 39 38 37 36 36 35 35 34 32 31 30 31 33 35 37 38 39 40 41 40 39 39 38 38 37 37 38 38 37 37 37 38 38 38 38 37 37 36 35 35 35 36 36 36 35 34 35 34 32 25 21 24 26 20 19 21 20 21 19 16 20 18 19 22 23 28 34 40 46
34 35 36 38 39 38 39 41 42 43 44 46 46 47 47 46 44 42 39 37 37 36 35 34 34 33 32 32 31 30 29 30 32 35 37 39 39 40 41 41 40 39 39 39 38 38 38 39 39 39 39 39 39 39 38 39 37 37 36 36 38 38 38 37 36 35 32 30 27 22 25 28 20 17 21 22 22 19 18 21 20 20 21 22 26 31 39 47
34 35 37 37 36 36 39 40 41 43 45 46 46 47 47 46 43 40 37 35 34 34 33 32 32 32 31 31 30 30 29 29 30 33 36 38 39 40 42 42 41 41 40 40 40 39 39 40 40 41 41 40 41 40 40 40 39 39 38 38 39 39 41 38 35 34 31 32 30 23 26 30 22 17 22 24 22 21 21 21 21 21 20 22 25 29 37 48
34 35 36 35 35 37 39 40 41 43 45 46 46 46 46 44 41 37 35 33 32 32 31 29 29 29 30 29 30 29 29 29 29 31 34 36 38 39 41 43 43 42 41 41 41 40 40 40 41 41 42 42 42 41 42 42 41 41 39 39 41 42 42 37 32 32 33 36 32 24 27 32 25 20 22 25 24 23 23 22 21 22 23 25 27 29 36 49
33 35 35 34 35 37 38 39 40 42 45 46 46 46 46 42 37 34 33 31 30 30 28 27 26 27 27 28 28 28 28 29 29 29 32 34 37 39 40 42 43 43 42 41 41 41 41 41 41 42 42 43 43 44 44 42 42 42 41 41 44 42 39 36 33 35 39 38 34 29 30 32 29 25 24 26 28 26 25 22 21 25 27 27 28 31 37 48
32 34 33 33 35 36 36 38 40 43 45 47 47 46 44 39 35 33 31 30 29 28 26 25 24 24 25 26 27 27 28 28 28 29 31 32 35 38 39 41 42 44 43 42 42 42 42 42 42 42 42 42 42 44 43 42 43 43 42 43 44 40 36 39 37 37 41 39 37 35 31 32 34 31 27 28 30 28 25 23 25 29 28 28 29 31 35 43
32 32 31 34 35 34 35 38 41 43 46 48 48 46 42 37 34 32 30 28 27 26 24 23 22 22 23 23 25 26 27 27 27 28 29 30 34 36 38 39 41 43 44 43 42 42 42 42 43 42 43 42 41 43 41 42 45 44 44 43 42 38 38 43 38 37 43 42 41 38 35 35 37 35 31 30 30 29 28 27 28 28 29 32 32 32 36 42
30 30 31 34 34 33 36 38 41 44 47 49 48 45 40 36 33 31 29 27 26 24 22 20 20 21 21 22 23 24 25 25 26 27 27 29 32 34 37 38 39 42 44 44 43 43 43 42 42 42 43 41 41 43 41 44 46 45 44 40 41 41 42 44 40 40 45 46 44 40 40 38 39 39 34 31 30 32 33 29 27 28 33 36 33 34 37 41
28 28 31 33 32 34 36 38 41 44 47 49 48 44 39 36 33 31 29 27 25 23 21 19 18 19 20 21 22 21 23 23 24 26 26 28 29 32 35 36 38 40 42 44 44 44 43 42 42 42 42 40 42 43 42 45 45 44 43 40 43 46 45 44 43 44 47 48 46 44 44 42 42 41 37 35 34 36 33 29 29 33 37 36 33 36 38 40
26 27 30 31 32 34 36 38 40 43 47 49 49 45 40 36 34 32 30 28 25 23 20 17 16 17 18 20 19 19 20 22 23 24 25 26 27 29 32 34 36 38 40 43 44 44 43 43 43 42 42 40 41 42 43 45 43 43 45 43 47 48 46 46 46 46 47 49 48 47 46 45 45 41 41 40 36 34 32 32 36 36 38 36 34 38 39 40
25 26 30 30 32 34 36 38 40 42 46 48 49 47 41 38 36 34 32 29 27 23 20 17 14 14 16 17 18 18 19 20 21 22 24 25 26 28 30 32 34 36 38 40 43 44 44 43 43 43 41 41 41 42 43 43 41 44 46 44 46 47 47 48 47 47 48 49 49 49 49 49 46 44 47 40 32 35 36 38 39 37 38 37 37 41 38 36
24 26 29 29 31 34 36 38 39 41 44 47 49 48 45 41 38 36 34 32 30 26 21 18 14 12 13 15 16 17 18 18 19 21 22 24 26 27 29 30 32 34 35 38 40 43 44 44 44 43 42 43 42 42 42 42 43 44 45 45 46 47 48 48 47 48 49 48 49 51 51 51 48 47 47 36 33 41 40 40 40 38 40 41 42 40 32 31
23 26 28 29 31 33 35 37 39 41 42 45 47 49 48 44 42 39 37 36 33 30 24 20 15 11 11 13 14 15 16 17 18 19 21 23 25 26 27 29 31 32 34 36 38 40 42 43 44 43 43 43 42 43 43 43 44 44 44 45 45 47 48 46 46 49 49 48 50 52 53 53 50 47 43 38 40 44 42 42 42 41 43 44 41 34 30 33
23 25 27 28 30 33 35 37 38 40 41 43 45 48 49 48 46 43 41 38 36 33 28 22 17 13 11 12 12 13 14 16 17 18 20 21 23 24 25 27 29 30 32 34 35 37 38 40 41 42 42 43 42 44 44 44 44 44 45 46 46 49 48 44 46 50 49 49 51 53 55 56 50 43 42 46 46 44 45 46 44 43 44 43 39 35 37 40
24 25 27 28 30 32 34 36 38 40 41 43 44 46 48 49 49 47 44 40 37 34 30 25 19 16 13 12 12 12 13 15 16 17 18 19 21 22 23 24 26 28 30 32 34 34 35 36 37 38 39 40 41 42 43 44 44 45 45 46 48 51 48 42 46 52 50 48 51 55 56 56 49 42 45 51 48 44 47 47 44 44 44 44 43 42 44 44
24 24 26 28 29 31 33 35 36 39 40 42 43 44 46 47 49 49 47 44 39 35 31 27 22 17 15 13 12 12 12 13 14 15 17 17 18 19 20 21 23 24 27 30 32 34 35 35 35 35 36 37 39 40 41 42 43 44 44 45 48 50 48 44 45 51 50 46 50 55 57 56 50 44 47 52 49 46 47 47 45 46 48 47 46 47 46 46
25 24 26 27 29 30 32 34 36 38 40 41 43 43 44 46 47 48 48 47 42 36 31 27 24 19 16 14 12 11 11 11 11 12 13 14 15 17 18 20 21 22 24 25 28 32 35 36 37 37 37 38 39 41 41 42 43 44 44 46 48 50 50 47 46 48 50 48 51 56 58 57 53 48 48 50 50 49 47 46 48 50 50 49 49 49 47 47
27 25 25 27 28 30 31 33 35 36 39 40 42 43 44 44 46 46 47 48 46 41 33 28 25 21 18 14 11 10 10 10 9 9 8 9 10 12 14 16 18 21 23 25 26 28 31 33 36 37 39 40 42 43 43 44 45 44 45 47 50 51 50 51 51 47 47 51 54 55 58 60 55 50 49 50 51 52 50 48 51 52 52 51 51 50 48 49
28 26 25 27 28 29 30 33 34 36 38 39 40 42 43 44 45 45 46 47 48 46 38 29 24 22 18 14 10 8 9 10 9 8 7 6 7 9 10 12 14 17 19 22 24 27 30 33 35 37 40 41 41 43 44 44 44 45 47 49 51 52 52 56 57 49 48 54 58 58 59 63 59 51 51 52 54 55 53 52 54 54 54 54 53 51 50 51
29 27 26 26 28 28 29 31 33 35 37 38 40 41 43 44 44 45 46 47 49 49 44 33 24 20 18 15 11 7 8 9 9 9 9 7 8 10 12 13 14 15 16 18 20 24 28 32 35 38 40 41 43 44 45 45 47 49 51 53 54 55 57 61 60 53 51 56 61 62 63 66 62 55 55 56 57 59 57 55 57 57 56 57 56 54 53 53
29 29 27 26 28 28 28 30 32 34 36 37 39 40 42 43 44 45 46 48 50 51 49 39 26 19 18 16 13 10 11 12 12 13 13 12 12 14 15 17 18 18 19 21 22 23 26 29 31 34 36 38 40 42 43 46 47 49 51 52 53 55 57 60 58 54 52 56 61 63 63 64 63 61 60 60 61 62 60 58 59 59 59 60 60 58 57 56
28 30 28 26 27 28 28 29 31 33 35 36 38 40 41 43 44 45 47 48 50 52 52 44 30 19 16 16 15 14 14 16 16 16 17 16 17 19 20 21 22 23 24 26 27 27 29 31 32 34 35 37 39 40 42 45 46 48 49 51 53 55 56 58 59 57 52 56 61 61 61 62 62 63 62 63 64 63 61 61 61 61 62 62 62 61 61 60
27 29 30 28 27 28 29 29 30 32 34 35 37 39 41 43 45 46 47 49 50 52 53 47 36 24 17 16 16 16 17 18 18 18 19 20 21 22 23 24 25 27 28 29 30 31 33 34 35 37 39 40 42 44 45 47 48 50 52 53 56 58 58 59 63 62 55 57 62 63 63 63 64 66 65 67 69 65 63 63 62 64 65 63 63 64 64 64
28 28 30 29 28 29 29 30 30 31 33 35 36 38 40 42 44 46 47 49 50 51 52 50 42 31 20 17 17 17 18 19 19 19 21 22 23 24 25 26 27 29 30 31 33 34 35 37 39 40 42 44 45 47 48 50 51 53 54 57 58 60 61 62 65 65 61 61 65 67 66 65 67 69 70 72 72 70 68 67 66 68 69 66 66 67 67 67
29 28 29 30 30 29 29 30 31 31 32 34 36 37 38 41 43 45 46 48 50 51 52 52 47 37 27 20 18 17 18 19 20 20 21 22 23 25 26 27 29 31 33 34 36 38 39 41 43 44 46 47 48 50 51 52 53 55 57 58 60 61 63 64 65 65 65 64 66 68 68 68 69 69 72 73 72 72 69 66 67 68 68 68 68 68 70 71
30 29 29 30 30 30 30 30 30 31 32 34 36 36 38 40 41 44 45 47 49 50 51 52 51 44 33 25 20 18 18 19 20 20 21 23 24 25 27 29 31 34 37 39 41 43 44 44 46 47 48 48 49 50 51 52 52 54 55 56 58 60 59 60 62 62 62 62 63 63 63 65 65 65 67 66 64 66 64 60 61 61 62 64 64 65 69 72
31 31 30 30 30 30 30 30 30 31 33 33 35 36 37 39 40 42 44 46 48 49 49 50 51 48 39 29 23 21 20 20 21 21 22 24 26 28 30 33 36 38 41 43 44 45 45 44 44 43 44 44 45 45 46 46 47 48 49 50 53 54 53 53 55 55 55 56 56 56 56 57 60 61 60 58 57 58 58 56 56 57 58 60 61 61 65 70
32 32 31 31 30 31 31 30 30 32 33 33 33 34 36 38 40 41 43 45 47 48 49 49 49 50 46 35 26 23 22 23 23 24 25 27 29 32 35 38 41 43 44 43 42 42 40 39 38 38 39 39 39 40 40 41 42 42 44 47 47 47 47 47 48 49 50 50 51 53 53 53 56 58 55 53 52 54 56 55 54 58 59 57 57 58 61 67
32 32 32 32 31 31 31 31 31 32 33 33 34 35 36 37 39 40 42 44 45 47 48 49 48 48 48 43 32 26 24 24 25 25 27 30 34 36 39 42 44 45 43 39 36 36 35 34 34 35 36 36 36 37 38 38 39 39 41 44 43 43 44 44 45 46 48 48 48 52 55 53 54 56 54 51 48 48 51 51 50 55 56 53 53 55 59 64
33 32 31 31 31 31 31 32 32 32 33 33 35 37 38 37 38 40 41 43 44 46 48 49 49 48 48 47 40 31 26 25 26 27 29 33 36 40 43 45 44 41 38 35 32 31 31 31 32 32 33 33 33 33 34 36 37 37 39 41 41 42 43 43 44 46 48 47 49 52 53 52 52 51 49 48 45 44 45 46 47 50 52 51 50 51 55 61
32 32 31 30 30 31 31 32 32 33 33 34 35 37 39 38 39 40 41 42 44 45 47 48 49 48 47 48 46 38 31 28 28 30 32 35 39 43 46 45 40 35 33 33 30 28 30 31 31 31 31 31 30 31 33 35 36 37 39 40 41 42 43 43 44 45 45 44 46 47 46 47 47 43 41 43 44 44 43 44 47 48 49 51 50 47 48 56
33 32 31 31 31 32 32 32 32 33 34 35 36 37 39 39 40 40 40 41 43 44 46 48 49 49 48 48 48 45 38 32 31 33 36 40 43 47 48 43 36 33 32 32 31 29 32 32 30 31 31 30 30 30 32 33 34 35 36 37 37 38 39 38 39 39 39 40 41 41 41 42 41 37 38 39 41 43 42 43 44 45 47 50 50 47 45 50
33 32 32 32 33 34 34 33 33 34 34 35 36 36 38 40 40 40 40 41 41 43 45 47 49 49 49 48 49 49 46 39 35 36 39 43 47 50 49 43 36 32 29 30 30 30 32 31 30 31 31 29 29 29 29 28 29 29 29 31 32 32 31 30 32 34 35 37 38 37 38 37 34 32 33 35 36 39 40 39 40 42 44 46 46 46 44 47
33 34 34 34 33 34 35 35 34 35 34 35 36 36 37 39 40 40 41 41 41 43 44 46 49 50 49 49 49 50 50 45 39 38 42 45 49 51 49 43 37 31 28 28 29 29 28 27 28 29 28 26 26 27 25 25 25 25 25 26 28 28 27 27 30 31 32 34 34 33 33 31 27 25 26 29 31 34 36 36 37 38 40 40 40 41 42 47
33 34 36 36 33 33 35 35 35 36 36 36 35 36 37 38 39 40 41 42 42 43 44 46 48 50 50 50 50 51 52 49 44 41 44 47 51 52 48 43 37 32 29 29 27 25 23 22 23 24 23 22 22 23 23 22 22 23 23 24 26 27 27 28 29 29 29 30 30 30 27 24 21 18 20 24 27 30 33 34 35 36 36 36 36 37 40 46
34 34 35 36 35 35 36 34 34 35 36 37 36 36 36 37 38 39 41 42 42 43 44 45 47 49 50 50 50 51 52 52 48 44 45 48 52 52 48 42 37 32 30 27 24 20 18 17 18 18 18 18 19 19 20 21 21 22 22 23 25 26 27 27 27 28 27 25 26 25 22 20 18 17 20 23 24 27 30 32 34 35 35 34 33 34 39 45
36 36 35 35 36 37 38 36 34 34 36 38 37 37 37 37 37 38 40 41 41 42 43 45 46 48 50 50 50 50 52 54 52 48 47 49 52 52 47 41 36 31 29 25 21 17 13 12 12 13 15 15 15 16 18 20 21 21 21 21 23 24 24 24 25 26 24 21 20 16 14 15 16 18 21 22 22 24 27 29 31 32 32 33 32 33 38 44
37 37 37 37 37 37 38 38 37 36 38 39 38 38 37 37 37 37 39 40 41 41 42 44 45 47 49 51 51 51 52 54 54 50 48 50 54 54 48 41 35 31 28 24 20 16 11 9 9 10 13 13 13 15 17 18 20 21 21 21 21 21 21 22 21 19 17 15 12 9 10 14 16 16 18 19 20 22 23 24 26 28 30 30 31 33 37 43
38 38 38 38 38 37 37 39 40 39 40 40 39 39 38 38 38 37 38 39 40 40 42 43 44 46 48 50 52 52 52 54 55 52 49 50 54 55 49 42 36 31 28 25 20 15 11 9 10 11 12 13 13 15 16 17 20 22 22 21 20 18 19 19 17 13 9 9 10 11 14 16 13 11 11 14 16 18 18 20 21 23 26 27 28 31 35 41
38 38 38 39 39 39 39 40 40 39 40 41 40 40 39 39 39 38 38 39 40 40 41 43 44 45 48 50 51 52 52 54 56 54 51 50 54 55 50 43 37 31 28 24 20 16 12 11 11 10 11 12 13 15 15 17 21 23 22 20 18 16 14 14 12 10 7 6 7 9 10 9 6 6 9 11 12 13 15 17 18 21 23 24 26 28 32 38
40 38 38 39 40 41 41 42 42 40 40 41 40 40 40 39 39 39 38 38 39 39 40 42 43 44 47 49 51 52 52 53 55 56 52 51 53 54 50 44 37 31 27 24 20 16 12 11 11 11 10 10 12 15 16 18 21 22 20 17 15 13 11 12 10 5 5 4 3 3 3 2 1 5 11 12 11 11 13 14 15 17 18 20 23 26 30 35
42 40 39 39 39 40 41 42 43 42 42 41 40 40 41 40 39 39 39 38 39 39 39 41 42 43 46 48 50 51 52 53 55 56 53 51 53 54 50 44 38 31 27 23 18 14 12 11 11 11 11 11 12 15 18 20 20 19 17 14 12 12 13 11 6 2 4 2 1 2 2 2 4 7 11 11 10 9 9 9 11 12 13 15 19 23 27 33
43 42 41 41 40 40 40 41 43 44 44 42 40 41 41 41 40 40 39 39 39 39 39 39 41 43 45 47 49 51 52 53 55 57 54 52 54 55 50 45 38 31 26 23 18 14 12 10 10 10 11 12 13 15 18 21 19 16 14 13 15 16 14 10 6 3 3 2 4 3 2 2 6 9 9 7 6 6 4 5 7 7 8 10 15 20 25 30
44 43 42 41 41 41 40 40 41 43 44 43 42 42 42 41 41 41 40 39 39 39 39 39 40 42 44 46 49 50 52 52 54 56 55 52 53 55 51 45 39 32 27 22 17 13 11 10 9 9 11 13 14 16 19 20 18 15 11 12 15 17 14 9 6 5 2 1 3 4 3 1 5 9 8 5 3 3 2 3 4 3 4 7 12 17 22 28
45 44 42 41 41 41 41 40 40 41 43 43 44 44 43 42 42 42 41 40 40 39 38 39 40 42 43 45 48 50 52 52 54 56 55 52 53 54 51 45 40 33 27 23 18 14 10 9 9 9 10 13 16 18 19 18 17 14 11 13 15 16 15 10 8 9 7 4 7 9 7 3 3 7 7 5 3 2 2 2 2 1 1 4 9 15 20 26
45 45 44 42 40 40 40 41 40 40 41 42 43 44 44 42 42 42 41 41 41 39 38 38 40 41 43 45 47 49 51 52 53 55 55 53 53 54 51 45 40 34 28 24 19 14 10 8 8 9 11 14 16 18 18 15 13 10 8 13 15 15 15 13 12 13 12 10 11 11 6 2 1 5 7 6 4 3 4 3 4 5 3 2 5 11 17 23
46 45 44 44 42 40 39 39 40 40 40 41 42 43 43 43 42 41 41 41 41 40 38 38 39 41 42 44 46 48 50 52 53 55 56 53 52 54 50 45 40 34 28 24 19 14 10 7 7 9 11 14 16 17 15 12 8 1 10 17 19 17 17 17 15 15 14 12 11 8 4 2 5 6 6 5 5 4 3 4 4 4 4 2 3 7 13 18
46 45 45 45 43 42 40 38 38 39 40 40 41 41 42 42 42 40 40 40 41 41 39 38 38 40 41 43 46 48 50 51 52 54 56 53 52 53 50 45 41 35 29 24 18 13 9 6 6 7 10 13 15 15 12 8 4 9 14 17 18 18 18 17 15 14 13 11 9 7 6 7 7 7 6 7 8 7 3 2 4 3 2 1 2 4 9 15
47 46 46 46 44 44 43 40 38 38 39 40 41 41 40 41 41 40 39 39 39 40 39 38 37 39 41 43 45 47 49 51 52 54 56 53 52 52 49 45 41 35 29 24 18 12 8 5 4 6 8 12 14 14 10 6 6 10 13 15 16 16 16 14 13 12 11 10 8 8 9 9 7 5 6 8 10 10 6 4 6 6 5 5 5 5 8 13
48 47 47 46 46 45 45 43 40 38 38 39 41 41 40 39 39 39 39 38 38 39 39 37 37 38 40 42 44 46 48 50 51 53 56 54 52 51 48 44 41 35 30 24 17 12 8 4 2 3 7 10 12 13 9 5 5 5 7 10 13 14 14 12 11 10 10 9 8 8 9 10 7 5 7 9 10 9 6 4 5 7 7 8 7 7 7 10
48 48 48 47 47 47 47 46 43 40 39 39 39 40 40 39 37 37 38 38 37 38 38 36 36 37 39 41 43 45 48 50 50 53 55 54 52 51 47 44 41 35 29 24 17 11 8 5 1 2 5 8 11 12 10 6 5 4 3 5 7 9 9 8 8 8 8 8 8 10 11 10 7 6 7 6 5 4 3 3 4 6 8 9 9 8 8 10
49 50 49 48 48 48 48 47 45 43 41 40 39 38 38 38 37 36 37 37 37 37 37 36 35 36 38 40 42 44 47 49 50 52 55 53 52 51 47 43 40 34 28 23 16 11 9 6 3 2 5 7 10 12 12 10 8 7 6 5 5 4 3 2 2 3 3 5 7 10 11 9 7 7 6 4 3 3 3 4 5 6 8 10 9 9 9 12
Wind_Direction
310 313 314 314 317 319 322 323 324 324 325 325 324 322 319 317 314 311 306 300 294 289 284 279 275 273 270 268 267 265 262 257 252 249 246 244 242 239 239 239 239 239 239 239 239 239 238 238 238 238 239 240 241 242 244 246 247 248 248 249 251 252 252 252 252 251 252 255 257 256 255 253 246 247 250 248 247 241 240 245 241 238 233 223 222 212 199 199
313 316 316 317 320 323 325 325 326 327 329 328 326 324 321 319 316 313 308 302 295 290 285 280 275 272 270 268 267 265 263 259 253 249 246 244 242 240 238 238 239 239 239 239 239 239 239 239 239 238 239 240 241 242 245 247 248 249 248 249 250 251 252 251 251 252 255 257 255 250 252 254 246 246 253 249 246 242 239 242 240 239 236 227 221 212 201 199
316 317 317 320 324 327 327 327 329 332 332 331 329 326 324 321 319 315 311 305 298 292 287 281 276 272 270 267 265 265 263 260 255 250 246 243 241 240 238 238 238 239 239 239 240 240 240 240 240 240 240 240 242 243 245 247 248 249 249 249 250 250 251 251 252 255 256 255 252 245 250 256 250 243 251 253 249 243 239 239 238 237 237 232 221 211 203 201
318 318 320 324 328 330 329 330 334 336 335 333 332 330 327 324 322 318 314 309 302 296 290 284 277 273 269 267 265 264 263 261 258 252 247 243 241 240 239 238 238 239 239 240 241 240 240 240 241 241 241 241 243 244 245 247 248 249 249 249 249 249 251 253 254 254 251 250 250 245 247 256 255 245 248 255 252 245 239 237 237 236 234 232 221 212 208 202
319 320 324 329 331 332 332 335 339 340 339 337 337 334 330 328 326 322 318 313 308 301 295 287 279 273 269 267 265 264 262 261 259 254 249 244 241 240 240 239 238 239 239 240 241 241 241 241 242 242 242 243 243 244 245 247 248 248 248 248 249 250 254 255 251 248 248 249 251 247 245 255 259 252 248 252 252 247 242 236 237 237 232 231 224 217 212 203
320 324 328 332 333 334 336 340 343 344 344 342 342 338 334 333 330 326 321 316 312 306 300 291 281 274 269 267 264 263 261 260 258 256 252 246 242 240 240 240 239 239 239 240 241 242 243 243 243 243 243 243 243 245 245 247 248 247 247 248 251 253 255 253 247 247 250 251 250 249 247 252 257 255 250 249 252 250 246 238 237 238 233 232 228 222 217 204
323 328 332 333 335 337 341 344 347 348 348 348 346 342 339 337 334 329 325 320 316 310 303 293 282 274 269 266 263 261 260 260 258 256 253 248 243 241 240 241 241 240 239 240 241 242 244 244 244 244 244 244 245 246 246 246 247 247 247 249 254 255 252 251 247 247 251 251 249 250 249 249 254 256 253 250 252 253 248 238 234 237 236 233 226 223 218 203
327 331 334 335 337 340 344 348 350 352 353 352 350 347 344 342 339 335 330 326 322 316 308 296 283 274 270 265 262 261 261 260 257 255 253 249 245 242 240 241 242 241 240 240 241 242 244 245 246 246 246 246 246 246 245 246 247 247 248 250 255 253 249 250 249 246 250 252 251 251 251 250 252 255 255 254 252 250 246 239 236 237 237 233 226 225 220 202
330 334 335 336 338 341 346 350 353 355 357 356 355 352 350 347 345 343 338 334 330 325 317 303 286 275 271 269 266 265 263 260 257 254 253 250 247 244 242 242 242 243 242 241 241 242 244 245 247 247 248 247 247 247 246 247 248 250 250 249 251 251 249 250 250 248 250 253 253 253 252 252 253 255 257 254 249 248 249 247 242 237 236 234 227 227 221 203
333 335 336 336 338 343 348 352 355 358 360 0 359 357 355 353 353 352 348 344 339 335 329 316 293 277 273 274 276 272 266 263 259 255 253 252 250 247 245 243 243 244 243 243 242 243 244 245 247 247 248 248 249 249 248 249 250 251 250 246 248 251 252 251 250 250 251 253 255 255 254 254 254 256 255 252 251 252 252 248 242 237 237 235 230 230 222 203
334 336 337 336 338 345 350 353 356 359 2 4 3 3 1 359 359 358 357 354 349 344 341 331 309 285 278 280 282 279 272 267 261 258 255 253 251 249 246 245 244 244 244 244 244 244 244 245 246 247 249 249 249 250 250 251 250 251 251 249 250 252 253 253 253 253 253 255 256 257 256 256 256 255 254 254 255 253 249 245 242 238 238 237 234 231 221 203
334 336 337 336 339 346 350 353 357 360 3 6 6 7 7 5 3 2 2 2 358 353 350 344 326 300 288 284 284 282 278 274 267 262 258 255 252 250 248 246 245 245 244 245 245 246 246 246 247 248 249 249 250 252 252 252 251 252 253 253 252 253 253 254 255 255 255 257 258 258 257 257 255 254 256 258 254 251 248 246 242 239 237 236 233 229 221 207
333 336 337 335 339 346 350 352 356 0 4 7 8 9 11 10 8 6 5 5 3 359 355 351 340 318 300 290 286 281 278 277 272 267 262 259 256 253 251 248 247 246 245 244 245 248 249 249 249 250 251 252 253 254 254 254 255 255 255 256 255 255 254 255 258 258 258 258 257 258 258 257 255 256 260 257 249 249 249 246 242 238 236 237 235 231 227 216
331 335 336 335 339 344 348 352 356 359 3 7 9 11 12 13 13 10 7 5 4 1 357 353 347 334 318 305 296 287 280 277 273 268 264 261 260 257 254 251 249 248 246 245 245 248 251 253 253 253 254 255 256 256 257 257 258 258 258 258 258 257 257 257 259 259 257 257 258 258 258 257 257 258 259 254 248 248 248 246 243 240 238 239 238 233 229 218
330 332 335 334 337 342 346 351 355 358 2 6 8 11 12 14 14 13 10 6 2 0 357 354 351 343 334 323 312 302 292 283 276 272 267 264 262 260 257 254 252 250 248 246 244 246 250 254 255 256 257 257 258 259 259 259 259 260 260 260 259 259 259 256 257 259 257 257 259 258 258 259 258 255 255 254 251 247 248 247 244 242 239 239 236 233 230 219
330 330 334 334 336 340 344 350 354 357 1 4 6 9 12 13 14 14 12 9 2 357 354 352 348 344 339 331 325 318 307 296 288 281 275 271 267 264 261 258 256 253 252 249 247 245 245 248 251 254 256 257 258 258 258 259 259 259 259 259 259 260 259 255 255 259 259 257 258 259 258 259 257 252 251 254 254 248 247 247 244 241 239 238 236 234 231 223
331 329 333 334 335 339 343 348 353 357 359 2 5 7 10 12 12 12 12 10 5 357 350 345 342 338 334 330 327 327 323 315 308 297 287 281 274 269 266 261 258 256 254 252 250 249 247 247 247 249 252 253 255 255 256 257 257 258 259 259 259 259 260 257 253 256 260 258 256 258 259 259 257 253 251 253 255 252 247 245 243 241 240 238 237 235 231 227
332 328 331 333 335 338 341 346 352 355 358 1 3 5 8 10 11 11 10 9 7 1 351 341 336 332 329 325 325 332 334 330 327 321 309 297 290 283 274 267 261 257 254 251 250 250 250 250 250 250 250 251 253 254 255 257 258 259 259 258 258 259 260 259 254 252 258 261 257 257 260 260 257 254 253 252 252 252 248 245 243 242 242 241 239 236 232 230
333 329 329 331 333 337 340 344 349 353 356 358 1 3 5 8 9 9 9 8 6 3 355 342 331 327 325 320 318 324 327 323 321 317 312 309 306 297 285 276 269 264 261 257 253 249 248 248 248 249 249 250 252 253 254 256 257 257 257 257 259 260 260 260 257 253 255 260 261 260 260 261 259 255 254 253 252 251 249 246 245 244 243 243 241 238 233 232
332 330 329 330 332 336 338 342 347 351 353 355 358 1 3 6 7 7 7 7 6 3 358 348 331 320 317 313 307 299 297 300 298 292 289 286 283 278 275 272 269 268 267 264 260 255 252 250 250 250 251 252 253 254 255 255 256 257 258 259 260 261 261 261 260 258 255 258 260 260 260 261 262 259 255 254 253 253 250 247 247 246 245 244 243 240 236 233
330 329 330 330 330 335 337 340 344 348 351 353 355 358 360 2 5 6 6 6 5 4 0 353 337 315 306 306 301 288 280 281 281 281 278 273 269 264 263 264 263 263 262 260 259 258 258 257 256 257 256 256 256 256 257 257 256 258 258 260 260 261 261 262 262 259 256 257 258 259 260 262 264 262 259 257 255 254 253 251 249 248 246 245 244 241 238 234
328 327 328 330 330 333 337 339 341 346 348 350 353 355 357 360 2 4 5 4 5 5 3 358 347 324 301 296 296 287 281 282 284 284 283 280 277 273 270 269 268 267 265 263 263 262 261 261 261 260 259 259 259 258 257 257 257 258 258 259 260 260 260 262 263 260 257 257 259 260 261 262 263 263 262 260 258 255 255 253 252 250 247 245 243 242 239 235
324 324 325 328 329 331 335 338 340 343 345 347 351 353 355 357 358 1 3 4 4 5 5 2 356 342 312 291 291 288 283 286 290 289 288 288 287 285 283 280 279 276 274 272 271 269 268 267 265 264 264 262 261 260 259 260 259 259 260 260 260 261 261 262 263 263 261 260 261 261 261 261 262 262 262 261 260 258 256 255 254 253 250 246 243 241 239 236
320 321 322 325 328 329 332 335 338 341 342 344 347 350 353 354 356 358 1 2 2 4 6 6 3 355 336 307 294 292 290 291 296 295 293 293 291 289 289 286 284 282 281 279 277 275 274 273 271 269 268 266 265 264 263 262 261 261 260 260 260 261 262 261 262 264 264 262 262 262 262 262 262 262 262 261 262 261 259 258 256 255 253 248 244 242 238 235
315 318 318 321 324 326 329 333 336 338 339 340 343 347 351 352 353 355 358 360 1 2 5 7 7 2 352 335 314 303 302 302 303 304 301 298 296 294 293 292 290 288 286 284 281 279 277 275 273 271 269 268 266 265 264 263 262 261 261 261 261 261 261 262 263 264 265 263 262 263 264 263 261 261 261 261 262 262 261 259 257 255 253 250 246 242 239 235
312 314 315 317 321 324 327 330 333 334 335 337 339 343 347 349 351 353 354 357 359 0 2 6 8 5 358 350 336 322 315 313 312 311 308 305 303 301 299 296 294 291 289 286 284 282 279 276 273 272 270 269 267 265 264 263 262 261 261 261 261 261 261 263 264 264 264 264 264 264 264 264 263 260 260 260 260 261 261 258 256 254 251 249 245 241 239 235
308 312 313 314 317 320 324 328 329 330 331 333 335 339 342 345 348 350 352 354 355 358 0 3 7 7 2 354 345 338 328 321 320 317 314 311 309 307 304 301 298 295 291 289 287 284 282 279 276 274 272 270 269 267 266 264 263 263 262 261 261 262 262 262 264 265 265 266 266 265 264 265 265 263 262 261 260 260 260 257 256 254 250 246 242 237 235 233
305 309 311 312 314 316 320 324 325 326 327 330 332 335 339 341 344 347 349 351 352 354 358 0 3 6 5 357 346 341 337 329 325 323 319 316 313 311 308 305 303 300 296 294 291 288 286 284 281 278 276 273 272 270 268 267 266 265 264 263 263 265 265 264 265 266 267 267 268 268 266 264 265 266 265 264 263 262 261 258 254 252 249 245 241 235 232 230
304 307 310 311 313 314 316 319 321 323 325 328 330 332 335 339 341 344 346 348 349 350 353 357 360 2 5 2 351 341 339 333 327 324 320 317 315 314 313 311 309 305 302 300 297 294 292 288 285 282 280 278 276 273 271 269 268 267 267 267 268 268 268 267 267 267 267 267 267 267 266 265 265 266 266 265 264 260 258 257 254 252 251 247 241 235 230 228
303 305 308 311 314 314 314 316 318 321 324 325 327 329 332 336 339 342 343 345 346 347 349 353 357 359 1 3 359 347 339 334 328 324 321 319 318 319 318 317 315 311 307 304 301 299 296 291 287 285 284 283 281 277 273 271 270 269 269 269 269 269 268 268 268 267 267 267 266 265 267 267 266 267 267 266 263 257 253 252 250 250 251 249 243 235 228 225
303 305 307 310 314 315 316 316 316 318 320 321 323 325 328 332 336 338 341 342 343 345 347 348 352 355 357 360 1 355 344 336 331 328 326 325 325 326 325 325 321 315 312 309 305 303 299 294 291 290 287 284 282 280 277 274 271 270 270 270 269 268 268 268 268 267 267 266 265 266 266 266 267 267 268 266 263 260 256 251 248 246 246 246 245 238 228 223
301 303 305 307 311 314 316 318 318 318 317 317 319 322 324 328 332 335 337 340 341 342 344 345 348 352 354 356 359 358 351 341 335 333 331 331 332 331 331 330 325 321 318 313 310 307 300 296 293 290 287 285 284 281 280 280 277 272 271 271 270 269 268 267 267 267 267 267 266 267 267 267 268 267 263 261 260 259 257 253 249 246 243 242 242 239 230 223
298 299 302 305 309 312 313 316 319 320 319 317 317 319 321 324 328 331 334 337 339 340 341 343 344 347 351 353 355 357 354 347 339 335 334 335 337 336 334 332 328 324 320 314 311 307 300 298 295 291 292 292 289 285 283 283 282 278 273 271 270 270 268 265 266 267 267 268 269 269 269 269 269 265 258 255 254 253 252 250 249 247 244 242 240 237 230 224
296 296 298 301 309 311 309 311 315 318 319 318 318 319 319 320 324 328 331 333 336 338 339 341 341 344 348 351 352 354 355 350 342 338 337 338 340 339 336 333 331 327 323 319 315 308 301 297 292 290 292 291 288 288 288 286 283 280 276 274 273 274 272 269 269 269 269 269 270 269 268 268 266 260 256 253 252 252 251 249 248 247 246 242 238 235 228 222
295 295 296 298 303 306 306 310 313 314 315 316 318 319 319 319 322 325 327 330 333 335 337 339 340 341 344 348 350 351 353 352 345 341 340 340 342 342 338 335 334 333 331 327 321 314 306 293 282 284 288 286 285 288 289 286 282 280 279 277 277 277 277 276 274 271 270 270 270 269 267 265 257 250 249 249 249 251 252 252 250 249 247 243 236 231 225 220
294 294 295 295 295 297 300 306 311 312 312 312 315 318 319 320 322 323 324 327 330 333 335 337 338 339 342 346 348 349 351 351 348 343 341 342 343 344 341 337 338 338 335 331 323 318 313 296 284 288 291 287 285 285 283 282 281 280 279 278 277 278 278 276 275 273 272 270 269 269 266 257 244 238 244 248 249 251 253 254 254 253 251 247 240 230 223 219
293 294 294 293 292 293 296 300 304 307 308 309 312 315 317 319 322 323 324 326 329 332 333 335 337 338 339 343 346 348 349 351 350 345 342 343 344 345 344 340 340 339 336 332 325 321 319 309 297 294 293 288 284 281 280 283 284 283 280 277 276 278 278 276 275 275 274 268 265 267 265 251 238 236 246 254 257 257 255 254 255 255 252 248 242 231 222 218
293 293 293 293 293 294 295 295 296 299 302 305 308 311 314 317 319 322 324 325 327 331 333 334 336 337 338 341 344 347 348 349 350 346 343 343 345 346 346 343 341 340 337 334 328 325 324 314 294 285 283 280 279 282 282 283 284 282 281 281 279 279 280 279 277 275 270 260 250 239 231 236 238 242 251 260 266 265 264 262 259 257 253 247 240 231 222 216
294 292 292 292 293 294 293 293 295 297 300 301 304 307 311 313 316 321 323 324 327 331 332 333 335 337 338 339 342 345 347 348 349 346 344 344 345 345 346 344 343 341 339 336 330 327 330 319 300 289 284 281 284 290 287 281 280 280 283 286 284 280 279 276 272 270 259 229 215 215 221 230 238 250 257 258 261 266 273 274 268 262 257 249 241 231 222 216
297 294 291 290 290 291 292 293 295 298 299 300 302 305 307 310 313 317 320 322 325 329 331 332 335 336 337 338 341 343 345 346 348 347 344 344 345 346 346 345 343 342 340 336 329 329 335 327 311 298 290 289 293 293 287 283 283 284 287 289 284 281 276 261 251 259 260 229 216 226 232 234 234 255 270 267 263 271 280 278 271 267 261 252 243 232 222 216
301 297 293 291 290 289 290 292 294 296 297 299 303 304 304 306 309 311 315 319 322 327 330 332 334 335 335 337 339 342 344 344 346 346 345 344 346 346 346 345 344 342 340 335 330 332 334 325 315 308 303 302 298 292 288 287 285 285 288 285 280 282 270 241 228 256 299 300 286 261 242 249 261 273 277 276 272 275 278 275 268 264 258 249 240 230 221 215
303 300 297 294 292 291 291 291 291 293 295 297 301 302 302 305 307 309 312 316 320 324 328 331 333 334 334 336 338 340 342 343 345 346 345 344 345 346 346 345 344 342 339 335 329 328 326 320 316 316 317 317 306 297 294 293 289 289 288 272 251 250 244 221 203 272 302 289 66 61 55 353 332 300 279 272 271 276 279 280 275 265 252 240 230 222 217 212
303 303 300 297 295 294 293 292 291 291 292 295 298 299 301 304 306 308 310 314 317 321 326 329 332 333 334 335 337 339 341 342 343 345 345 343 344 346 346 344 343 341 338 335 327 322 323 318 314 321 327 326 317 307 303 301 300 298 285 256 229 225 217 192 176 221 248 168 121 90 70 4 325 308 294 282 276 280 289 289 279 265 248 231 220 213 211 208
299 302 302 300 298 297 296 295 294 292 291 292 294 295 298 302 304 306 309 312 315 318 323 328 331 332 333 334 335 337 339 341 342 344 345 343 344 345 345 344 343 340 337 334 326 318 318 314 318 332 337 334 326 317 312 309 308 300 271 236 221 210 190 172 177 173 156 170 165 152 139 80 323 313 314 316 297 285 294 284 267 249 228 216 211 208 205 205
295 298 301 301 299 298 298 298 297 296 294 292 291 292 296 299 301 305 309 311 313 316 320 325 329 330 332 333 334 336 338 339 341 344 344 343 343 345 345 344 342 339 337 334 325 316 315 314 325 341 343 339 332 325 321 317 313 300 257 218 203 189 173 168 167 140 130 157 145 127 119 114 317 314 320 328 345 7 345 317 342 30 171 196 202 203 202 202
291 295 298 300 300 299 298 298 299 299 298 296 292 291 293 296 298 303 307 310 312 314 317 323 327 330 331 332 333 335 337 338 340 342 343 342 343 344 344 343 342 339 336 334 324 315 313 317 330 345 348 345 339 333 331 327 321 300 230 184 170 163 155 153 150 136 135 138 124 105 91 102 248 293 304 308 319 360 31 38 31 30 43 111 181 198 199 199
288 291 294 297 299 299 299 299 299 300 300 300 296 292 291 293 296 300 304 308 310 312 315 320 325 329 330 331 332 334 336 337 338 341 342 342 342 344 344 342 342 339 335 333 325 314 311 317 335 350 355 352 347 344 344 344 344 277 169 156 148 144 140 140 141 137 133 124 113 107 108 187 226 242 255 265 279 305 21 71 65 36 36 67 141 185 195 195
285 288 290 292 296 298 298 299 299 299 301 302 300 296 291 290 293 297 301 305 308 311 314 318 323 328 329 330 331 333 335 336 337 339 341 341 342 344 343 342 341 338 335 332 324 312 305 313 340 357 4 2 357 357 2 15 72 135 147 145 141 137 135 138 139 136 129 120 120 141 175 215 235 240 234 231 240 255 271 119 144 129 97 119 137 175 196 195
282 285 287 290 293 295 297 298 299 299 301 302 303 302 296 290 290 293 296 300 305 309 312 317 322 327 328 329 330 331 333 335 336 338 340 340 342 344 343 341 341 338 334 331 324 309 298 303 343 6 16 15 10 12 23 56 119 143 145 140 135 129 126 131 136 135 133 137 157 179 188 203 222 239 239 235 230 228 222 182 180 176 166 174 177 190 204 196
280 282 285 288 290 292 295 297 298 299 301 302 304 305 301 293 289 290 294 297 302 306 310 315 320 325 327 328 329 330 332 333 334 337 339 339 342 344 343 341 340 337 333 330 324 307 290 283 333 22 32 33 28 27 36 74 125 152 156 146 136 130 130 137 147 149 147 154 179 194 186 188 201 216 234 240 232 224 220 203 196 194 191 193 199 209 206 196
278 280 283 285 288 290 292 294 296 298 300 302 303 305 305 298 290 288 290 294 298 303 307 312 317 322 325 326 328 329 330 332 333 335 338 339 341 344 342 341 341 337 332 331 325 306 283 261 227 70 60 53 49 46 48 72 115 128 145 141 132 130 133 144 160 167 167 176 190 190 185 184 190 202 217 222 213 208 209 190 196 207 209 209 216 220 206 193
275 277 280 283 285 287 290 292 294 296 299 301 302 303 305 303 296 289 288 291 295 299 304 308 313 320 324 325 326 328 329 331 332 334 337 338 340 343 343 341 340 336 332 331 326 305 280 251 210 140 95 76 69 66 64 71 88 100 107 111 113 120 123 141 180 196 192 186 185 183 184 187 190 196 197 178 151 142 134 146 166 190 203 208 214 217 209 199
Height
10713 10711 10708 10705 10702 10699 10695 10691 10687 10683 10679 10675 10671 10666 10661 10657 10653 10649 10646 10643 10640 10638 10637 10637 10637 10637 10637 10639 10640 10641 10642 10644 10645 10647 10649 10651 10653 10656 10658 10660 10662 10664 10665 10667 10668 10670 10672 10674 10676 10677 10679 10680 10682 10683 10685 10686 10688 10690 10692 10693 10694 10695 10697 10699 10700 10701 10702 10704 10708 10713 10713 10713 10717 10719 10719 10721 10722 10724 10726 10725 10725 10725 10725 10726 10727 10731 10737 10740
10710 10708 10705 10703 10700 10697 10693 10689 10684 10680 10676 10671 10667 10662 10657 10652 10648 10644 10641 10637 10635 10633 10632 10632 10632 10632 10633 10634 10636 10637 10638 10640 10641 10642 10644 10646 10649 10651 10653 10656 10657 10660 10661 10663 10664 10666 10668 10670 10672 10673 10675 10677 10678 10680 10681 10682 10684 10686 10688 10689 10689 10691 10692 10694 10696 10697 10700 10702 10705 10710 10708 10708 10714 10716 10716 10717 10719 10722 10723 10722 10723 10722 10722 10723 10723 10726 10731 10734
10708 10705 10703 10701 10698 10694 10691 10686 10682 10678 10673 10668 10663 10658 10653 10647 10643 10639 10636 10633 10630 10628 10628 10627 10627 10628 10629 10630 10632 10633 10634 10636 10637 10638 10640 10642 10645 10646 10649 10651 10653 10655 10657 10659 10660 10662 10664 10665 10667 10669 10671 10673 10674 10676 10677 10678 10681 10681 10684 10685 10685 10686 10687 10689 10693 10695 10698 10699 10701 10706 10705 10704 10710 10713 10713 10714 10716 10718 10719 10719 10720 10720 10719 10719 10719 10721 10724 10727
10706 10703 10701 10698 10696 10692 10688 10684 10680 10675 10670 10665 10660 10654 10648 10643 10638 10634 10631 10628 10626 10624 10624 10623 10623 10624 10625 10626 10628 10629 10631 10632 10633 10634 10636 10638 10640 10642 10644 10646 10648 10651 10653 10655 10656 10658 10660 10661 10663 10665 10667 10668 10670 10672 10673 10674 10676 10677 10680 10681 10680 10681 10682 10687 10692 10693 10693 10693 10696 10702 10702 10700 10705 10710 10711 10711 10712 10714 10715 10716 10717 10717 10716 10714 10714 10716 10717 10718
10703 10701 10698 10696 10693 10690 10686 10682 10677 10673 10668 10662 10657 10650 10644 10639 10635 10631 10628 10625 10623 10621 10620 10620 10620 10621 10622 10623 10624 10625 10627 10628 10629 10630 10631 10634 10636 10638 10640 10641 10644 10646 10649 10651 10652 10654 10655 10657 10659 10660 10662 10664 10667 10667 10668 10671 10672 10673 10676 10676 10674 10677 10682 10685 10688 10688 10687 10688 10691 10697 10698 10697 10700 10705 10707 10708 10708 10710 10712 10714 10714 10712 10711 10711 10711 10711 10711 10714
10701 10699 10696 10694 10692 10688 10684 10680 10675 10671 10665 10659 10653 10647 10640 10636 10632 10628 10625 10622 10620 10618 10617 10617 10617 10617 10618 10620 10621 10622 10623 10624 10626 10627 10628 10630 10632 10634 10635 10637 10640 10642 10644 10646 10648 10650 10651 10653 10654 10656 10658 10660 10662 10662 10666 10668 10667 10669 10671 10671 10671 10676 10680 10679 10683 10684 10681 10684 10687 10690 10695 10695 10696 10699 10703 10704 10704 10706 10708 10711 10710 10707 10707 10708 10707 10708 10708 10713
10700 10697 10695 10692 10690 10686 10682 10678 10674 10668 10663 10656 10650 10644 10638 10633 10629 10626 10623 10620 10618 10616 10614 10614 10614 10614 10615 10617 10617 10618 10620 10621 10622 10623 10624 10626 10628 10630 10632 10633 10635 10637 10640 10642 10644 10645 10647 10649 10650 10653 10653 10656 10659 10659 10663 10662 10662 10664 10666 10668 10669 10674 10675 10672 10678 10681 10676 10678 10682 10686 10690 10691 10691 10693 10698 10700 10701 10703 10704 10705 10705 10704 10704 10703 10702 10703 10703 10708
10698 10696 10693 10691 10688 10685 10681 10677 10672 10666 10660 10654 10648 10642 10636 10631 10627 10624 10621 10618 10615 10613 10612 10611 10611 10612 10613 10614 10614 10615 10616 10617 10619 10620 10621 10622 10624 10626 10628 10630 10631 10633 10635 10637 10640 10641 10643 10645 10646 10648 10649 10653 10655 10654 10658 10656 10657 10660 10662 10667 10667 10667 10668 10667 10674 10675 10671 10672 10676 10681 10683 10686 10687 10688 10693 10696 10698 10698 10698 10701 10702 10702 10699 10697 10699 10699 10699 10705
10697 10694 10692 10689 10687 10683 10680 10675 10670 10665 10659 10653 10646 10640 10635 10630 10626 10622 10619 10616 10614 10612 10610 10609 10609 10610 10610 10611 10612 10613 10614 10615 10616 10617 10618 10619 10621 10622 10624 10626 10628 10629 10631 10633 10635 10637 10639 10641 10642 10644 10646 10649 10649 10650 10653 10651 10654 10656 10659 10664 10660 10659 10662 10664 10667 10668 10667 10667 10671 10675 10677 10680 10681 10684 10689 10691 10692 10692 10694 10698 10697 10696 10694 10694 10696 10695 10696 10702
10695 10693 10690 10688 10685 10682 10678 10674 10669 10664 10658 10652 10646 10639 10634 10629 10625 10621 10618 10615 10613 10610 10608 10608 10607 10608 10608 10609 10610 10611 10611 10612 10613 10614 10615 10616 10618 10619 10621 10623 10624 10626 10627 10629 10631 10633 10635 10637 10638 10639 10641 10644 10645 10646 10647 10647 10651 10652 10652 10656 10654 10654 10658 10659 10661 10663 10663 10663 10665 10668 10671 10673 10676 10680 10681 10682 10688 10690 10691 10692 10690 10690 10690 10691 10693 10691 10691 10698
10694 10691 10689 10687 10684 10681 10677 10673 10668 10663 10657 10652 10646 10639 10634 10629 10624 10621 10617 10615 10612 10610 10608 10607 10606 10607 10607 10608 10608 10609 10609 10610 10611 10612 10613 10614 10615 10616 10618 10619 10621 10622 10624 10625 10627 10629 10630 10632 10633 10635 10638 10640 10640 10641 10642 10644 10647 10646 10646 10650 10651 10651 10653 10653 10656 10658 10658 10659 10660 10661 10664 10666 10670 10673 10672 10679 10687 10685 10685 10684 10685 10687 10687 10688 10688 10685 10689 10698
10692 10690 10688 10686 10683 10680 10676 10672 10667 10662 10657 10652 10646 10640 10634 10629 10624 10621 10617 10614 10612 10610 10608 10606 10606 10606 10607 10607 10607 10607 10607 10608 10609 10609 10610 10611 10612 10613 10614 10616 10617 10619 10620 10622 10623 10624 10626 10628 10629 10631 10634 10634 10635 10637 10638 10640 10641 10641 10642 10645 10646 10646 10647 10648 10651 10652 10652 10655 10655 10654 10656 10658 10663 10665 10667 10679 10682 10676 10678 10679 10680 10682 10682 10682 10681 10683 10690 10699
10691 10689 10687 10684 10682 10679 10675 10671 10667 10662 10657 10652 10647 10641 10635 10630 10625 10621 10618 10615 10612 10610 10608 10607 10606 10606 10606 10606 10606 10606 10606 10606 10607 10607 10608 10608 10609 10610 10612 10613 10614 10615 10617 10618 10619 10621 10622 10624 10626 10628 10629 10630 10632 10633 10633 10635 10636 10637 10638 10638 10640 10640 10641 10645 10647 10645 10647 10650 10648 10647 10648 10649 10655 10662 10667 10673 10672 10669 10672 10673 10674 10675 10675 10676 10679 10685 10690 10693
10690 10687 10686 10683 10681 10678 10674 10671 10666 10662 10657 10652 10647 10642 10636 10631 10626 10622 10619 10616 10613 10611 10610 10608 10607 10606 10606 10605 10605 10605 10605 10605 10605 10605 10605 10606 10607 10608 10609 10610 10611 10612 10613 10615 10616 10618 10619 10621 10622 10624 10625 10626 10628 10628 10629 10631 10631 10632 10633 10634 10634 10632 10636 10643 10642 10638 10641 10643 10641 10640 10639 10641 10651 10660 10662 10660 10663 10666 10665 10665 10668 10670 10671 10674 10678 10681 10681 10684
10689 10686 10684 10682 10680 10677 10674 10670 10666 10662 10657 10653 10648 10643 10638 10633 10628 10624 10620 10617 10615 10613 10611 10609 10608 10607 10606 10605 10605 10604 10603 10603 10603 10603 10603 10604 10604 10605 10606 10606 10608 10609 10610 10611 10613 10614 10616 10617 10618 10620 10621 10622 10623 10623 10624 10625 10626 10627 10627 10628 10627 10625 10631 10639 10635 10629 10634 10638 10635 10632 10631 10635 10647 10656 10653 10649 10655 10661 10658 10659 10663 10665 10667 10669 10672 10673 10673 10677
10687 10685 10683 10681 10679 10676 10673 10670 10666 10662 10657 10653 10648 10644 10639 10634 10630 10626 10622 10619 10616 10614 10612 10610 10609 10607 10606 10604 10604 10603 10602 10601 10601 10601 10601 10602 10602 10603 10603 10604 10605 10605 10606 10608 10609 10611 10612 10613 10614 10615 10617 10617 10618 10619 10619 10620 10621 10621 10622 10622 10620 10619 10625 10632 10631 10623 10627 10634 10628 10623 10625 10629 10640 10648 10647 10642 10647 10653 10653 10655 10658 10658 10660 10662 10664 10666 10668 10672
10686 10684 10682 10680 10678 10675 10672 10669 10665 10662 10658 10653 10649 10645 10640 10636 10631 10627 10624 10621 10618 10615 10613 10611 10609 10608 10606 10604 10603 10602 10602 10601 10600 10600 10600 10600 10600 10601 10601 10601 10602 10602 10603 10604 10605 10607 10607 10609 10610 10611 10612 10613 10613 10614 10614 10615 10615 10616 10617 10617 10615 10614 10617 10623 10625 10621 10621 10625 10622 10617 10618 10622 10631 10639 10640 10639 10640 10643 10647 10650 10650 10650 10652 10656 10658 10659 10664 10667
10685 10683 10681 10679 10676 10674 10671 10668 10665 10661 10658 10654 10650 10645 10641 10637 10633 10629 10626 10622 10619 10616 10613 10611 10609 10608 10606 10604 10603 10602 10601 10601 10600 10600 10599 10599 10599 10599 10599 10599 10600 10600 10600 10601 10602 10604 10604 10605 10606 10607 10607 10607 10608 10609 10610 10610 10611 10612 10612 10610 10609 10609 10611 10612 10615 10620 10619 10615 10613 10613 10612 10613 10622 10631 10633 10634 10633 10634 10640 10643 10642 10644 10646 10650 10651 10654 10659 10661
10683 10681 10680 10678 10675 10673 10670 10668 10664 10661 10657 10654 10650 10646 10642 10638 10634 10630 10627 10623 10620 10616 10613 10610 10608 10606 10605 10604 10603 10601 10601 10600 10600 10599 10599 10599 10598 10598 10598 10598 10598 10598 10598 10599 10600 10601 10601 10601 10602 10602 10602 10603 10604 10604 10605 10606 10606 10606 10605 10604 10603 10603 10604 10600 10604 10616 10616 10607 10604 10607 10607 10603 10611 10624 10626 10626 10627 10627 10632 10636 10635 10637 10640 10643 10645 10648 10652 10655
10682 10680 10678 10676 10674 10672 10669 10667 10664 10660 10657 10654 10650 10646 10642 10638 10635 10631 10627 10624 10620 10616 10612 10608 10606 10604 10603 10603 10602 10601 10600 10599 10599 10598 10598 10598 10598 10597 10597 10596 10596 10596 10596 10597 10597 10597 10597 10597 10597 10598 10598 10599 10599 10599 10600 10601 10599 10599 10598 10598 10597 10597 10595 10590 10595 10607 10609 10602 10597 10599 10600 10596 10602 10614 10617 10618 10620 10619 10623 10628 10628 10630 10634 10636 10637 10640 10644 10647
10680 10678 10677 10675 10673 10670 10668 10666 10663 10660 10656 10653 10650 10646 10643 10639 10635 10631 10627 10623 10619 10615 10611 10606 10603 10602 10601 10601 10601 10600 10599 10598 10598 10597 10597 10597 10597 10596 10596 10595 10594 10594 10594 10594 10594 10594 10593 10593 10594 10594 10594 10594 10594 10594 10594 10593 10593 10592 10591 10591 10590 10589 10586 10584 10588 10596 10600 10596 10591 10592 10593 10592 10596 10601 10605 10609 10610 10610 10615 10620 10620 10623 10626 10627 10628 10632 10636 10639
10679 10677 10675 10674 10672 10669 10667 10665 10662 10659 10656 10653 10650 10647 10643 10639 10635 10631 10627 10623 10619 10615 10610 10605 10601 10600 10599 10599 10599 10598 10597 10596 10597 10596 10595 10595 10595 10595 10594 10593 10592 10592 10591 10591 10591 10591 10590 10590 10590 10589 10589 10589 10588 10588 10587 10586 10586 10585 10585 10584 10583 10581 10580 10580 10579 10584 10592 10590 10584 10586 10588 10588 10589 10590 10594 10597 10597 10601 10606 10609 10611 10614 10615 10617 10620 10624 10627 10629
10677 10675 10673 10672 10670 10668 10666 10664 10661 10658 10655 10652 10649 10646 10643 10639 10635 10631 10627 10623 10619 10615 10610 10605 10601 10598 10597 10597 10597 10597 10596 10595 10595 10595 10594 10594 10593 10592 10592 10591 10590 10589 10588 10587 10587 10587 10586 10585 10585 10584 10583 10583 10582 10581 10581 10580 10580 10579 10578 10577 10575 10573 10575 10575 10570 10573 10583 10583 10578 10578 10581 10582 10582 10581 10584 10584 10583 10590 10595 10597 10602 10603 10602 10607 10612 10614 10616 10619
10675 10674 10671 10670 10669 10666 10664 10662 10660 10657 10655 10652 10649 10645 10642 10638 10635 10631 10627 10623 10619 10615 10611 10606 10601 10598 10596 10595 10595 10595 10594 10594 10594 10594 10593 10592 10591 10589 10588 10588 10586 10585 10584 10583 10582 10581 10581 10579 10578 10577 10576 10575 10575 10574 10574 10573 10572 10572 10570 10569 10568 10567 10567 10566 10565 10565 10571 10574 10570 10568 10571 10574 10573 10572 10573 10571 10572 10577 10582 10586 10590 10590 10591 10596 10600 10603 10605 10609
10674 10672 10670 10668 10666 10665 10663 10661 10659 10656 10653 10651 10648 10645 10641 10638 10634 10631 10627 10623 10619 10614 10610 10606 10602 10599 10596 10595 10594 10593 10593 10593 10592 10592 10591 10589 10588 10587 10585 10584 10582 10581 10579 10578 10576 10575 10575 10573 10571 10569 10568 10567 10567 10566 10565 10565 10564 10563 10562 10561 10560 10559 10559 10558 10558 10559 10561 10563 10561 10559 10561 10563 10563 10562 10560 10561 10563 10564 10570 10575 10576 10577 10579 10582 10586 10591 10593 10596
10672 10670 10668 10666 10664 10663 10661 10659 10657 10655 10652 10650 10647 10644 10641 10638 10634 10630 10627 10623 10620 10615 10611 10607 10603 10599 10597 10595 10594 10593 10592 10592 10591 10590 10589 10587 10586 10584 10582 10580 10578 10576 10573 10572 10570 10567 10566 10565 10563 10561 10559 10558 10558 10557 10557 10556 10556 10554 10554 10554 10551 10550 10552 10551 10551 10551 10551 10551 10551 10551 10552 10550 10551 10551 10549 10553 10556 10555 10558 10563 10564 10565 10568 10569 10573 10579 10581 10583
10670 10668 10666 10664 10663 10661 10659 10657 10655 10653 10651 10648 10646 10643 10640 10637 10634 10630 10626 10623 10620 10617 10613 10608 10605 10601 10598 10595 10593 10592 10591 10590 10589 10588 10586 10584 10582 10580 10578 10576 10573 10571 10567 10564 10562 10559 10557 10555 10554 10552 10551 10550 10549 10549 10549 10548 10547 10547 10546 10545 10543 10543 10545 10545 10543 10543 10543 10542 10542 10543 10543 10542 10540 10539 10541 10545 10547 10546 10548 10551 10552 10553 10554 10555 10559 10565 10568 10571
10669 10667 10664 10662 10661 10659 10657 10655 10653 10651 10649 10647 10644 10641 10639 10636 10633 10629 10626 10622 10619 10616 10613 10609 10606 10602 10598 10595 10593 10591 10590 10588 10586 10585 10583 10581 10579 10576 10574 10571 10567 10563 10560 10556 10553 10549 10548 10546 10544 10544 10543 10542 10542 10541 10541 10540 10540 10540 10538 10536 10536 10538 10538 10538 10537 10536 10535 10535 10535 10533 10533 10534 10532 10529 10533 10536 10536 10538 10538 10540 10541 10539 10539 10544 10548 10554 10558 10561
10667 10665 10662 10661 10659 10657 10655 10654 10652 10650 10647 10645 10642 10640 10637 10635 10632 10628 10625 10622 10619 10616 10612 10609 10605 10602 10599 10596 10593 10590 10589 10587 10585 10583 10581 10578 10575 10572 10569 10565 10560 10555 10551 10548 10544 10541 10540 10539 10537 10536 10536 10535 10535 10535 10534 10533 10533 10533 10531 10529 10531 10532 10531 10531 10531 10529 10528 10529 10530 10525 10523 10526 10525 10523 10526 10528 10529 10530 10528 10529 10531 10529 10530 10536 10540 10544 10549 10552
10665 10663 10661 10659 10657 10655 10653 10652 10650 10648 10645 10643 10640 10638 10635 10633 10631 10627 10624 10620 10617 10614 10611 10607 10604 10601 10598 10595 10592 10589 10587 10585 10583 10581 10579 10575 10572 10568 10564 10559 10554 10548 10543 10540 10538 10536 10534 10533 10532 10531 10530 10530 10529 10529 10528 10528 10527 10527 10525 10524 10525 10525 10524 10524 10523 10522 10521 10522 10521 10518 10517 10518 10517 10518 10519 10519 10520 10520 10519 10521 10522 10522 10523 10526 10530 10534 10540 10543
10663 10661 10659 10657 10655 10653 10651 10650 10648 10646 10644 10641 10638 10636 10633 10631 10629 10626 10623 10619 10616 10613 10610 10606 10603 10601 10597 10594 10591 10587 10585 10583 10580 10578 10575 10572 10568 10564 10559 10553 10547 10542 10538 10534 10532 10530 10528 10527 10526 10526 10525 10525 10524 10524 10523 10522 10522 10521 10520 10519 10519 10518 10518 10518 10516 10514 10514 10514 10513 10512 10512 10511 10510 10513 10513 10510 10510 10510 10512 10514 10514 10515 10517 10518 10520 10526 10531 10535
10661 10659 10657 10655 10653 10651 10649 10648 10646 10644 10642 10639 10637 10634 10631 10628 10627 10625 10622 10618 10615 10611 10609 10606 10602 10600 10596 10593 10589 10586 10582 10580 10577 10574 10570 10567 10563 10558 10552 10548 10542 10537 10533 10528 10526 10525 10522 10521 10521 10520 10519 10519 10519 10519 10517 10516 10515 10515 10514 10513 10513 10512 10512 10511 10509 10508 10508 10507 10506 10506 10506 10504 10505 10508 10506 10503 10502 10502 10503 10505 10506 10508 10510 10512 10513 10517 10523 10527
10659 10657 10655 10653 10651 10649 10647 10646 10644 10642 10640 10637 10635 10632 10629 10626 10624 10623 10620 10618 10614 10611 10607 10604 10601 10598 10595 10591 10587 10583 10580 10576 10573 10570 10566 10562 10558 10552 10546 10542 10538 10533 10530 10526 10522 10520 10517 10516 10515 10514 10513 10514 10514 10513 10513 10512 10511 10510 10509 10508 10507 10507 10507 10507 10505 10503 10503 10501 10500 10500 10499 10499 10500 10500 10498 10497 10496 10495 10496 10498 10499 10500 10502 10505 10507 10510 10515 10519
10656 10655 10653 10651 10650 10647 10645 10643 10642 10640 10637 10635 10633 10631 10628 10625 10622 10621 10619 10616 10613 10609 10606 10602 10599 10596 10593 10589 10585 10581 10578 10573 10570 10567 10563 10558 10554 10548 10542 10536 10533 10530 10526 10522 10519 10516 10513 10511 10510 10509 10509 10510 10509 10509 10508 10508 10507 10505 10504 10503 10502 10502 10502 10502 10500 10499 10497 10496 10495 10494 10494 10494 10495 10495 10493 10493 10491 10491 10491 10492 10493 10494 10496 10498 10501 10504 10507 10511
10653 10652 10651 10650 10647 10645 10642 10641 10640 10638 10635 10633 10631 10629 10626 10624 10621 10618 10616 10614 10611 10607 10604 10601 10597 10594 10591 10588 10584 10579 10575 10571 10567 10563 10559 10555 10550 10545 10538 10533 10529 10526 10522 10518 10514 10512 10510 10508 10507 10507 10507 10507 10506 10505 10505 10504 10503 10502 10501 10499 10498 10498 10498 10497 10496 10494 10493 10491 10490 10489 10490 10490 10490 10490 10489 10488 10487 10486 10486 10487 10488 10489 10491 10493 10496 10498 10502 10505
10650 10649 10648 10647 10645 10642 10640 10639 10637 10635 10633 10631 10629 10627 10624 10622 10620 10617 10614 10611 10609 10606 10602 10599 10595 10592 10589 10586 10582 10578 10573 10569 10565 10560 10556 10552 10547 10542 10536 10530 10525 10521 10518 10515 10512 10510 10508 10506 10505 10505 10505 10504 10504 10503 10501 10501 10500 10499 10498 10497 10495 10494 10494 10493 10492 10490 10488 10488 10486 10485 10486 10485 10485 10485 10485 10484 10484 10484 10483 10483 10484 10484 10486 10488 10490 10493 10496 10499
10647 10646 10645 10644 10642 10640 10638 10637 10635 10633 10630 10628 10626 10624 10622 10619 10618 10615 10612 10609 10607 10604 10601 10597 10594 10590 10587 10584 10581 10577 10572 10567 10563 10558 10553 10549 10545 10541 10535 10529 10524 10520 10517 10514 10511 10509 10507 10505 10504 10504 10503 10502 10502 10501 10499 10498 10497 10496 10495 10494 10492 10491 10490 10489 10488 10486 10485 10484 10483 10483 10483 10482 10482 10482 10482 10481 10481 10481 10480 10480 10480 10480 10481 10482 10484 10487 10490 10493
10644 10643 10642 10640 10639 10637 10635 10633 10632 10630 10628 10626 10624 10622 10619 10617 10615 10613 10610 10607 10605 10602 10599 10595 10592 10588 10585 10581 10578 10575 10570 10565 10560 10556 10551 10546 10542 10537 10533 10528 10524 10519 10516 10513 10511 10508 10507 10505 10504 10503 10502 10500 10500 10499 10498 10496 10494 10493 10492 10491 10489 10488 10486 10485 10485 10483 10482 10481 10480 10481 10481 10480 10480 10481 10481 10480 10479 10478 10477 10477 10477 10476 10476 10477 10479 10481 10484 10487
10641 10639 10638 10637 10636 10634 10633 10630 10629 10628 10626 10623 10621 10620 10617 10615 10612 10611 10608 10604 10602 10600 10597 10593 10590 10587 10583 10579 10575 10572 10567 10563 10558 10554 10549 10545 10540 10535 10531 10526 10522 10518 10515 10512 10510 10508 10506 10505 10503 10502 10500 10499 10498 10497 10496 10494 10492 10490 10489 10488 10486 10485 10484 10483 10482 10481 10480 10479 10479 10480 10480 10480 10481 10481 10480 10479 10477 10476 10475 10474 10474 10473 10473 10473 10474 10476 10479 10483
10637 10636 10635 10634 10632 10631 10629 10627 10626 10625 10623 10621 10619 10618 10615 10613 10611 10609 10607 10603 10600 10598 10595 10591 10588 10585 10581 10578 10574 10570 10566 10561 10557 10553 10548 10544 10539 10533 10529 10525 10520 10517 10514 10511 10509 10507 10505 10504 10502 10501 10499 10498 10496 10495 10493 10492 10489 10487 10486 10485 10483 10483 10482 10481 10481 10480 10479 10478 10478 10479 10480 10481 10481 10480 10478 10477 10476 10475 10474 10473 10472 10471 10470 10470 10471 10472 10475 10479
10634 10633 10632 10630 10629 10627 10626 10624 10623 10622 10620 10618 10617 10615 10613 10611 10609 10607 10605 10602 10599 10596 10593 10589 10586 10583 10580 10576 10573 10569 10565 10560 10556 10551 10546 10541 10537 10532 10527 10524 10520 10516 10514 10511 10508 10506 10504 10503 10501 10500 10498 10496 10494 10492 10490 10489 10487 10485 10483 10482 10481 10481 10480 10480 10480 10479 10479 10479 10479 10480 10480 10480 10480 10479 10478 10476 10475 10474 10473 10472 10471 10470 10469 10468 10469 10470 10472 10475
10631 10630 10628 10626 10625 10624 10622 10621 10619 10618 10617 10616 10614 10612 10609 10608 10607 10605 10602 10600 10597 10595 10592 10588 10585 10581 10578 10575 10571 10568 10564 10559 10554 10549 10544 10539 10536 10532 10527 10523 10519 10516 10513 10511 10508 10505 10503 10501 10499 10498 10496 10495 10493 10490 10488 10486 10484 10482 10480 10479 10479 10479 10479 10479 10479 10479 10479 10480 10480 10480 10480 10480 10480 10479 10478 10476 10475 10474 10473 10472 10471 10470 10468 10467 10467 10468 10470 10473
10628 10626 10625 10623 10622 10620 10619 10617 10616 10614 10613 10613 10611 10608 10606 10605 10604 10603 10600 10598 10595 10592 10590 10587 10583 10579 10576 10573 10569 10566 10562 10558 10553 10547 10543 10538 10534 10530 10525 10521 10518 10515 10512 10510 10507 10505 10502 10500 10498 10497 10495 10493 10491 10489 10485 10482 10480 10479 10477 10476 10477 10477 10477 10477 10478 10478 10479 10480 10479 10479 10480 10480 10480 10479 10478 10476 10475 10473 10473 10472 10471 10469 10468 10467 10466 10467 10469 10471
10624 10623 10621 10619 10618 10616 10615 10614 10612 10610 10609 10609 10608 10605 10603 10602 10601 10600 10598 10596 10594 10590 10587 10585 10581 10578 10575 10571 10568 10565 10561 10556 10552 10546 10541 10536 10532 10528 10524 10520 10516 10514 10511 10509 10507 10504 10502 10500 10498 10496 10494 10492 10490 10487 10483 10480 10477 10476 10474 10473 10474 10475 10475 10476 10477 10478 10479 10479 10479 10479 10480 10480 10480 10479 10478 10476 10475 10474 10473 10471 10470 10469 10468 10467 10466 10466 10468 10470
10621 10619 10618 10616 10615 10613 10612 10610 10609 10607 10605 10605 10603 10601 10600 10599 10597 10596 10595 10593 10592 10589 10586 10582 10579 10576 10573 10569 10566 10562 10558 10554 10550 10545 10540 10535 10531 10527 10522 10519 10515 10512 10510 10508 10506 10504 10502 10500 10497 10495 10493 10491 10488 10485 10481 10477 10474 10472 10471 10471 10472 10473 10474 10475 10476 10477 10478 10479 10479 10478 10479 10480 10480 10479 10478 10477 10475 10474 10473 10472 10470 10469 10468 10467 10467 10467 10467 10469
10617 10616 10614 10613 10611 10610 10609 10607 10605 10604 10602 10600 10599 10598 10597 10596 10594 10593 10592 10590 10589 10587 10584 10581 10577 10573 10570 10567 10564 10561 10557 10553 10548 10544 10539 10534 10530 10525 10521 10517 10513 10510 10508 10506 10504 10502 10500 10498 10496 10494 10492 10489 10486 10483 10479 10475 10472 10469 10468 10469 10471 10472 10473 10475 10476 10476 10477 10478 10478 10478 10478 10479 10479 10479 10478 10477 10475 10474 10473 10472 10471 10470 10469 10468 10468 10467 10468 10469
10612 10612 10611 10609 10608 10607 10606 10604 10602 10601 10599 10597 10595 10595 10593 10592 10591 10590 10589 10587 10585 10584 10582 10579 10575 10571 10568 10565 10562 10559 10555 10551 10547 10543 10538 10533 10529 10524 10519 10516 10512 10509 10506 10505 10503 10501 10499 10497 10496 10494 10491 10489 10485 10482 10478 10475 10471 10469 10469 10470 10472 10473 10473 10475 10476 10476 10477 10477 10477 10477 10478 10478 10478 10479 10478 10477 10476 10475 10474 10473 10472 10471 10470 10470 10469 10469 10469 10470
10608 10607 10606 10605 10605 10603 10602 10601 10600 10597 10596 10594 10592 10591 10590 10589 10588 10587 10586 10585 10583 10581 10579 10577 10573 10570 10566 10563 10560 10557 10554 10550 10545 10541 10537 10532 10528 10523 10518 10514 10510 10507 10505 10503 10502 10500 10498 10496 10495 10493 10491 10489 10485 10482 10479 10476 10473 10472 10472 10472 10473 10474 10475 10476 10477 10477 10477 10478 10478 10478 10477 10477 10478 10478 10477 10476 10476 10475 10474 10473 10473 10472 10471 10471 10471 10470 10470 10472
10603 10603 10601 10601 10601 10600 10598 10597 10597 10594 10593 10591 10588 10587 10586 10586 10585 10584 10583 10582 10580 10578 10577 10574 10571 10568 10564 10561 10558 10555 10552 10548 10544 10540 10535 10531 10527 10522 10517 10513 10509 10506 10503 10502 10500 10499 10497 10496 10495 10493 10491 10489 10486 10483 10480 10478 10477 10476 10475 10475 10475 10475 10476 10478 10478 10478 10478 10478 10479 10478 10477 10477 10477 10477 10476 10475 10475 10474 10474 10474 10473 10473 10472 10472 10472 10472 10472 10473
10597 10597 10597 10596 10596 10595 10594 10593 10593 10591 10589 10588 10586 10583 10582 10582 10582 10581 10580 10579 10578 10576 10575 10572 10569 10566 10563 10559 10556 10553 10550 10546 10542 10538 10534 10529 10525 10521 10517 10512 10508 10505 10502 10500 10499 10498 10497 10495 10494 10493 10492 10490 10487 10484 10482 10481 10480 10479 10478 10477 10477 10477 10478 10479 10479 10479 10479 10479 10479 10478 10478 10478 10478 10477 10476 10475 10474 10474 10474 10474 10474 10474 10474 10473 10473 10473 10474 10475
10593 10592 10592 10592 10591 10590 10590 10589 10588 10587 10586 10585 10583 10580 10578 10578 10578 10578 10577 10576 10575 10574 10573 10570 10567 10564 10561 10557 10554 10551 10548 10544 10540 10536 10532 10528 10524 10520 10515 10511 10507 10503 10500 10498 10497 10497 10496 10495 10494 10493 10492 10490 10488 10486 10484 10482 10481 10481 10481 10479 10479 10479 10479 10479 10479 10480 10479 10479 10479 10478 10478 10478 10477 10477 10476 10475 10474 10474 10474 10475 10475 10475 10475 10475 10475 10475 10475 10476
10588 10586 10585 10587 10586 10585 10585 10585 10584 10583 10582 10581 10580 10578 10576 10574 10574 10574 10573 10573 10572 10571 10570 10569 10565 10562 10559 10556 10553 10550 10546 10543 10539 10535 10530 10526 10522 10519 10514 10510 10506 10502 10499 10497 10496 10495 10495 10494 10493 10493 10492 10491 10489 10487 10486 10484 10482 10482 10482 10481 10481 10481 10480 10480 10480 10480 10480 10480 10479 10479 10478 10478 10477 10477 10476 10476 10475 10475 10475 10475 10475 10475 10475 10476 10476 10476 10476 10476